����29�N�x�@��C��������Ԃɂ�鑪�茋��,,,,,,,,,,,,
,,,,,,,,,,,,
�P�@����n�_,,,,,,,,,,,,
���J�s���h�i���J�s���h���O����8�Ԓn3),,,,,,,,,,,,
,,,,,,,,,,,,
�Q�@���Ԓl�i�m��l�j������29�N9��7���`����29�N9��29��,,,,,,,,,,,,
,,,,,,,,,,,,
,�N,��,��,��,SO2,SPM,Ox,CO,NO,NO2,���x,���x
,,,,,ppm,mg/m3,ppm,ppm,ppm,ppm,��,%
H01,2017,9,7,1,***,0.049,0.011,***,***,***,25.3,75.7
H01,2017,9,7,2,***,0.035,0.004,0.4,***,***,25.3,78.7
H01,2017,9,7,3,***,0.045,0.002,0.4,0.01,0.024,24.6,78.9
H01,2017,9,7,4,***,0.045,0.001,0.4,0.024,0.027,24.6,80
H01,2017,9,7,5,***,0.046,0.001,0.3,0.022,0.019,24.8,78.6
H01,2017,9,7,6,***,0.048,0.001,0.4,0.021,0.018,24.9,80.2
H01,2017,9,7,7,***,0.033,0.004,0.4,0.019,0.016,25.8,74.3
H01,2017,9,7,8,***,0.038,0.008,0.5,0.015,0.019,27,69.6
H01,2017,9,7,9,***,0.024,0.012,0.4,0.011,0.016,28.5,64.9
H01,2017,9,7,10,***,0.047,0.025,0.4,0.009,0.019,30.6,59.8
H01,2017,9,7,11,***,0.057,0.045,0.4,0.003,0.014,31.5,56.9
H01,2017,9,7,12,***,0.079,0.051,0.3,0.002,0.011,31.2,59.6
H01,2017,9,7,13,***,0.066,0.046,0.3,0.001,0.01,29.9,63.7
H01,2017,9,7,14,***,0.162,0.027,1.1,0.006,0.038,26.7,81.1
H01,2017,9,7,15,***,0.145,0.026,0.9,0.007,0.045,27.8,80.9
H01,2017,9,7,16,***,0.116,0.023,0.7,0.01,0.043,27.9,81.7
H01,2017,9,7,17,***,0.115,0.022,0.6,0.008,0.036,28.2,79.9
H01,2017,9,7,18,***,0.11,0.015,0.6,0.007,0.035,27.6,83.8
H01,2017,9,7,19,***,0.105,0.016,0.6,0.004,0.027,27.7,83.7
H01,2017,9,7,20,***,0.133,0.013,0.6,0.002,0.025,27.6,85
H01,2017,9,7,21,***,0.15,0.009,0.7,0.002,0.025,27.2,86.7
H01,2017,9,7,22,***,0.075,0.006,0.6,0.007,0.025,26.1,84.5
H01,2017,9,7,23,***,0.037,0.007,0.5,0.004,0.025,26.1,83.7
H01,2017,9,7,24,***,0.049,0.007,0.4,0.002,0.023,24.8,87.6
H01,2017,9,8,1,***,0.029,0.014,0.3,0,0.015,24.7,88.8
H01,2017,9,8,2,***,0.029,0.014,0.3,0.001,0.013,24.8,89.7
H01,2017,9,8,3,***,0.054,0.012,0.3,0,0.013,24.6,88.9
H01,2017,9,8,4,***,0.02,0.012,0.3,0,0.015,24.4,85.4
H01,2017,9,8,5,***,0.01,0.021,0.3,0,0.01,24.2,80
H01,2017,9,8,6,***,0.027,0.023,0.3,0,0.01,24.3,77.5
H01,2017,9,8,7,***,0.017,0.021,0.4,0.002,0.014,24.5,73.9
H01,2017,9,8,8,***,0.023,0.03,0.3,0.003,0.011,27,61.3
H01,2017,9,8,9,***,0.016,0.039,0.3,0.002,0.007,28,53.7
H01,2017,9,8,10,***,0.019,0.041,0.3,0.002,0.007,29.7,48.4
H01,2017,9,8,11,***,0.016,0.047,0.2,0.001,0.006,31.2,42.9
H01,2017,9,8,12,***,0.019,0.05,0.2,0.001,0.006,31.1,38.9
H01,2017,9,8,13,***,0.024,0.051,0.2,0.001,0.005,31.8,37.2
H01,2017,9,8,14,***,0.027,0.05,0.2,0.001,0.005,32,36.8
H01,2017,9,8,15,***,0.026,0.048,0.2,0.001,0.005,32.2,37.5
H01,2017,9,8,16,***,0.034,0.047,0.2,0.001,0.006,31.1,39.2
H01,2017,9,8,17,***,0.025,0.044,0.3,0.001,0.007,30.6,42.5
H01,2017,9,8,18,***,0.025,0.04,0.4,0.001,0.008,29.4,44.8
H01,2017,9,8,19,***,0.018,0.035,0.5,0.001,0.01,28,48.3
H01,2017,9,8,20,***,0.028,0.034,0.4,0.001,0.01,27.2,50.9
H01,2017,9,8,21,***,0.034,0.033,0.4,0,0.009,26.6,52.5
H01,2017,9,8,22,***,0.028,0.033,0.4,0,0.008,26,54
H01,2017,9,8,23,***,0.022,0.033,0.3,0,0.007,25.5,54.4
H01,2017,9,8,24,***,0.026,0.029,0.4,0,0.009,25.1,56.7
H01,2017,9,9,1,***,0.026,0.025,0.4,0,0.011,24.6,57.5
H01,2017,9,9,2,***,0.029,0.024,0.3,0,0.011,23.7,60.5
H01,2017,9,9,3,***,0.024,0.025,0.3,0,0.009,23.3,62.3
H01,2017,9,9,4,***,0.026,0.021,0.4,0,0.01,23,64.1
H01,2017,9,9,5,***,0.024,0.018,0.4,0,0.011,22.9,64.5
H01,2017,9,9,6,***,0.034,0.013,0.4,0,0.014,23.1,64.9
H01,2017,9,9,7,***,0.032,0.012,0.4,0.004,0.015,24,63.8
H01,2017,9,9,8,***,0.036,0.017,0.4,0.005,0.012,25.1,60.7
H01,2017,9,9,9,***,0.041,0.025,0.4,0.004,0.011,27,56.6
H01,2017,9,9,10,***,0.045,0.036,0.4,0.002,0.01,29.6,55
H01,2017,9,9,11,***,0.033,0.05,0.3,0.001,0.007,31.1,47.4
H01,2017,9,9,12,***,0.031,0.051,0.3,0.001,0.007,30.6,44.7
H01,2017,9,9,13,***,0.031,0.049,0.3,0.001,0.006,30.3,46.6
H01,2017,9,9,14,***,0.035,0.048,0.3,0.001,0.006,32.4,46.5
H01,2017,9,9,15,***,0.026,0.047,0.2,0,0.004,31.5,46.5
H01,2017,9,9,16,***,0.021,0.044,0.2,0.001,0.006,30.6,50.6
H01,2017,9,9,17,***,0.033,0.045,0.3,0,0.005,29,58.9
H01,2017,9,9,18,***,0.027,0.042,0.3,0.001,0.006,27.3,64.4
H01,2017,9,9,19,***,0.018,0.037,0.3,0,0.008,26.3,68.7
H01,2017,9,9,20,***,0.027,0.039,0.3,0,0.005,26.1,67.2
H01,2017,9,9,21,***,0.027,0.04,0.3,0,0.004,25.5,67.2
H01,2017,9,9,22,***,0.021,0.042,0.3,0,0.003,25.4,68.8
H01,2017,9,9,23,***,0.028,0.041,0.3,0,0.003,24.9,74.4
H01,2017,9,9,24,***,0.019,0.035,0.3,0,0.004,25.2,73.7
H01,2017,9,10,1,***,0.022,0.032,0.3,0,0.005,24.9,72.2
H01,2017,9,10,2,***,0.018,0.027,0.3,0,0.005,25.5,74.3
H01,2017,9,10,3,***,0.02,0.019,0.3,0,0.005,24.4,72.8
H01,2017,9,10,4,***,0.029,0.018,0.3,0,0.004,24,74.2
H01,2017,9,10,5,***,0.014,0.018,0.3,0,0.005,24.3,72.5
H01,2017,9,10,6,***,0.024,0.012,0.3,0.002,0.007,23.8,74.6
H01,2017,9,10,7,***,0.032,0.017,0.3,0.001,0.006,24.5,70.6
H01,2017,9,10,8,***,0.03,0.025,0.3,0.001,0.005,25.7,68.3
H01,2017,9,10,9,***,0.014,0.036,0.3,0,0.003,26.8,63.4
H01,2017,9,10,10,***,0.024,0.045,0.3,0,0.002,29.2,53.6
H01,2017,9,10,11,***,0.02,0.049,0.3,0,0.002,32.4,45.5
H01,2017,9,10,12,***,0.028,0.053,0.3,0,0.002,32.1,42
H01,2017,9,10,13,***,0.041,0.059,0.3,0,0.002,32.4,44.5
H01,2017,9,10,14,***,0.041,0.065,0.3,0,0.002,32.7,43.4
H01,2017,9,10,15,***,0.044,0.06,0.3,0,0.004,30.9,50
H01,2017,9,10,16,***,0.02,0.048,0.2,0,0.004,29.9,53.5
H01,2017,9,10,17,***,0.027,0.04,0.3,0,0.007,29.4,55.8
H01,2017,9,10,18,***,0.025,0.039,0.3,0,0.006,28.1,63
H01,2017,9,10,19,***,0.036,0.039,0.3,0,0.007,27.2,70.3
H01,2017,9,10,20,***,0.031,0.038,0.3,0,0.006,26.7,72.2
H01,2017,9,10,21,***,0.037,0.037,0.3,0,0.005,26.7,72.7
H01,2017,9,10,22,***,0.034,0.03,0.3,0,0.006,25.8,74
H01,2017,9,10,23,***,0.031,0.03,0.3,0,0.006,25.8,74.8
H01,2017,9,10,24,***,0.037,0.029,0.3,0,0.005,25.5,75.3
H01,2017,9,11,1,***,0.03,0.03,0.2,0,0.004,25.4,76.1
H01,2017,9,11,2,***,0.03,0.026,0.2,0,0.007,25.1,76.3
H01,2017,9,11,3,***,0.028,0.024,0.2,0.001,0.007,25,79.6
H01,2017,9,11,4,***,0.033,0.014,0.2,0.003,0.013,24.2,76.7
H01,2017,9,11,5,***,0.033,0.005,0.2,0.01,0.018,24,76.7
H01,2017,9,11,6,***,0.026,0.002,0.3,0.02,0.019,24.2,76.2
H01,2017,9,11,7,***,0.038,0.004,0.4,0.022,0.019,25.4,73.9
H01,2017,9,11,8,***,0.034,0.017,0.4,0.007,0.013,28.2,65.4
H01,2017,9,11,9,***,0.023,0.031,0.3,0.003,0.008,28.3,64.7
H01,2017,9,11,10,***,0.027,0.034,0.2,0.004,0.009,29,59.6
H01,2017,9,11,11,***,0.023,0.039,0.2,0.003,0.007,30,57.2
H01,2017,9,11,12,***,0.031,0.039,0.2,0.002,0.007,30.7,55.2
H01,2017,9,11,13,***,0.035,0.041,0.1,0.003,0.008,29.9,53.8
H01,2017,9,11,14,***,0.029,0.038,0.2,0.002,0.006,29.1,57.1
H01,2017,9,11,15,***,0.011,0.04,0.2,0.002,0.006,29.7,50.8
H01,2017,9,11,16,***,0.024,0.037,0.2,0.002,0.007,28.6,56.7
H01,2017,9,11,17,***,0.027,0.034,0.2,0.002,0.006,28.2,58.1
H01,2017,9,11,18,***,0.028,0.032,0.2,0.002,0.007,27.7,62.6
H01,2017,9,11,19,***,0.035,0.031,0.2,0.001,0.007,25.4,82.5
H01,2017,9,11,20,***,0.029,0.025,0.2,0.002,0.009,24.6,87.5
H01,2017,9,11,21,***,0.022,0.025,0.2,0.002,0.01,24.4,88.1
H01,2017,9,11,22,***,0.022,0.026,0.2,0.001,0.006,24.5,86.6
H01,2017,9,11,23,***,0.026,0.024,0.2,0.001,0.006,24.8,87.9
H01,2017,9,11,24,***,0.027,0.026,0.1,0.001,0.005,24.8,87.8
H01,2017,9,12,1,***,0.027,0.026,0.1,0.001,0.005,24.9,87.1
H01,2017,9,12,2,***,0.033,0.023,0.1,0.001,0.005,25.1,86.9
H01,2017,9,12,3,***,0.037,0.021,0.1,0.002,0.006,25.3,88.1
H01,2017,9,12,4,***,0.032,0.02,0.1,0.002,0.006,25.8,87.1
H01,2017,9,12,5,***,0.033,0.018,0.2,0.003,0.007,25.7,87.1
H01,2017,9,12,6,***,0.019,0.017,0.2,0.004,0.009,25.7,85.8
H01,2017,9,12,7,***,0.037,0.012,0.3,0.006,0.011,25.8,88.4
H01,2017,9,12,8,***,0.034,0.004,0.5,0.012,0.017,25.9,90.5
H01,2017,9,12,9,***,0.031,0.003,0.5,0.009,0.018,25.4,91.1
H01,2017,9,12,10,***,0.013,0.011,0.3,0.003,0.012,24.6,91.1
H01,2017,9,12,11,***,0.035,0.012,0.2,0.002,0.011,24.9,91.4
H01,2017,9,12,12,***,0.025,0.018,0.3,0.003,0.007,26.2,89.4
H01,2017,9,12,13,***,0.027,0.021,0.4,0.002,0.01,27.5,84.5
H01,2017,9,12,14,***,0.043,0.024,0.5,0.003,0.013,27.8,77.6
H01,2017,9,12,15,***,0.027,0.028,0.3,0.001,0.011,27.7,75.3
H01,2017,9,12,16,***,0.024,0.027,0.3,0.001,0.01,27,78.7
H01,2017,9,12,17,***,0.035,0.02,0.4,0.003,0.016,27.5,74.5
H01,2017,9,12,18,***,0.024,0.013,0.7,0.004,0.022,27.5,67.6
H01,2017,9,12,19,***,0.02,0.025,0.4,0.002,0.012,27,67.2
H01,2017,9,12,20,***,0.025,0.024,0.4,0.001,0.013,26.4,68.4
H01,2017,9,12,21,***,0.024,0.017,0.5,0,0.013,25.8,70.7
H01,2017,9,12,22,***,0.023,0.02,0.3,0,0.012,25.5,70
H01,2017,9,12,23,***,0.031,0.017,0.4,0,0.013,25.5,68.8
H01,2017,9,12,24,***,0.021,0.025,0.3,0,0.009,25.1,67.9
H01,2017,9,13,1,***,0.022,0.027,0.2,0,0.008,24.2,72.1
H01,2017,9,13,2,***,0.022,0.015,0.3,0,0.013,23.3,77.7
H01,2017,9,13,3,***,0.019,0.009,0.3,0.001,0.015,22.9,80.4
H01,2017,9,13,4,***,0.023,0.007,0.3,0.001,0.015,22.4,82
H01,2017,9,13,5,***,0.024,0.003,0.3,0.002,0.017,22.4,83.9
H01,2017,9,13,6,***,0.025,0.002,0.4,0.011,0.021,22.5,83
H01,2017,9,13,7,***,0.027,0.003,0.5,0.023,0.019,23.1,79.4
H01,2017,9,13,8,***,0.03,0.012,0.5,0.011,0.014,25.5,70.7
H01,2017,9,13,9,***,0.022,0.025,0.3,0.004,0.01,26.7,63.2
H01,2017,9,13,10,***,0.026,0.031,0.3,0.002,0.008,28.2,58.7
H01,2017,9,13,11,***,0.022,0.04,0.3,0.002,0.007,30.9,47.3
H01,2017,9,13,12,***,0.025,0.05,0.2,0.001,0.006,31.4,43.5
H01,2017,9,13,13,***,0.029,0.049,0.3,0,0.005,32,40.6
H01,2017,9,13,14,***,0.021,0.047,0.4,0.001,0.005,31.9,42.1
H01,2017,9,13,15,***,0.023,0.045,0.3,0,0.005,31.8,40.9
H01,2017,9,13,16,***,0.016,0.044,0.4,0,0.006,30.6,42.4
H01,2017,9,13,17,***,0.025,0.044,0.3,0,0.005,30.3,44.5
H01,2017,9,13,18,***,0.018,0.031,0.8,0,0.011,29,43
H01,2017,9,13,19,***,0.024,0.026,0.6,0,0.012,28.1,48.2
H01,2017,9,13,20,***,0.021,0.025,0.5,0.001,0.013,27,48.3
H01,2017,9,13,21,***,0.023,0.03,0.4,0,0.008,26.4,46
H01,2017,9,13,22,***,0.02,0.03,0.4,0,0.008,25.7,49
H01,2017,9,13,23,***,0.027,0.021,0.5,0,0.015,24.9,50
H01,2017,9,13,24,***,0.031,0.024,0.4,0,0.012,24.8,50.8
H01,2017,9,14,1,***,0.03,0.024,***,***,***,24.2,55.4
H01,2017,9,14,2,***,0.023,0.01,0.3,***,***,23.1,62.9
H01,2017,9,14,3,***,0.024,0.013,0.3,0.001,0.023,23.2,63.8
H01,2017,9,14,4,***,0.023,0.02,0.2,0.001,0.016,23.1,62.1
H01,2017,9,14,5,***,0.028,0.025,0.2,0.001,0.012,22.7,63.1
H01,2017,9,14,6,***,0.029,0.003,0.3,0.018,0.028,22.3,65.5
H01,2017,9,14,7,***,0.02,0.01,0.3,0.005,0.019,23.1,62.3
H01,2017,9,14,8,***,0.029,0.013,0.4,0.01,0.019,24.4,58.6
H01,2017,9,14,9,***,0.039,0.024,0.3,0.007,0.016,25.7,53.6
H01,2017,9,14,10,***,0.023,0.036,0.3,0.004,0.014,27.4,47.6
H01,2017,9,14,11,***,0.027,0.047,0.2,0.002,0.01,30.2,37.5
H01,2017,9,14,12,***,0.025,0.055,0.2,0.001,0.007,30.2,33.5
H01,2017,9,14,13,***,0.024,0.062,0.2,0.001,0.006,30.6,34.4
H01,2017,9,14,14,***,0.025,0.056,0.2,0.001,0.007,30.4,35.4
H01,2017,9,14,15,***,0.016,0.049,0.2,0.001,0.008,29.9,34.5
H01,2017,9,14,16,***,0.033,0.043,0.3,0.002,0.01,29.2,40
H01,2017,9,14,17,***,0.033,0.037,0.4,0.002,0.013,28.2,40.9
H01,2017,9,14,18,***,0.02,0.033,0.4,0.001,0.014,26.4,44.3
H01,2017,9,14,19,***,0.03,0.025,0.6,0.002,0.02,25.8,44.3
H01,2017,9,14,20,***,0.03,0.03,0.4,0.001,0.013,24.8,43.9
H01,2017,9,14,21,***,0.023,0.034,0.3,0,0.008,23.8,46.8
H01,2017,9,14,22,***,0.02,0.031,0.3,0,0.008,23.3,46.9
H01,2017,9,14,23,***,0.015,0.03,0.3,0,0.008,23.4,42.4
H01,2017,9,14,24,***,0.021,0.031,0.3,0,0.007,22.5,43.4
H01,2017,9,15,1,***,0.022,0.031,0.3,0,0.007,22.2,45.2
H01,2017,9,15,2,***,0.022,0.029,0.3,0,0.007,21.5,48.8
H01,2017,9,15,3,***,0.017,0.028,0.2,0,0.007,21.2,51.7
H01,2017,9,15,4,***,0.025,0.026,0.3,0,0.009,20.7,53
H01,2017,9,15,5,***,0.026,0.023,0.3,0,0.01,20.3,54.6
H01,2017,9,15,6,***,0.019,0.016,0.3,0.001,0.016,20.3,55.4
H01,2017,9,15,7,***,0.032,0.008,0.4,0.012,0.025,20.8,56.1
H01,2017,9,15,8,***,0.034,0.012,0.4,0.014,0.02,21.6,53
H01,2017,9,15,9,***,0.022,0.021,0.3,0.006,0.014,23.2,43.8
H01,2017,9,15,10,***,0.018,0.028,0.2,0.003,0.009,24.6,39.7
H01,2017,9,15,11,***,0.022,0.031,0.2,0.004,0.009,26.1,36.1
H01,2017,9,15,12,***,0.021,0.039,0.3,0.003,0.008,26.7,34.4
H01,2017,9,15,13,***,0.026,0.045,0.3,0.002,0.01,26.7,34
H01,2017,9,15,14,***,0.018,0.047,0.3,0.003,0.014,28.1,31.8
H01,2017,9,15,15,***,0.025,0.052,0.3,0.003,0.015,***,***
H01,2017,9,15,16,***,0.02,0.053,0.3,0.003,0.017,***,***
H01,2017,9,15,17,***,0.044,0.043,0.4,0.004,0.025,***,***
H01,2017,9,15,18,***,0.042,0.031,0.5,0.006,0.031,***,***
H01,2017,9,15,19,***,0.051,0.025,0.5,0.005,0.034,***,***
H01,2017,9,15,20,***,0.047,0.021,0.6,0.005,0.036,***,***
H01,2017,9,15,21,***,0.054,0.017,0.6,0.007,0.031,***,***
H01,2017,9,15,22,***,0.046,0.005,0.5,0.016,0.039,***,***
H01,2017,9,15,23,***,0.041,0.007,0.5,0.008,0.032,***,***
H01,2017,9,15,24,***,0.034,0.01,0.4,0.005,0.022,***,***
H01,2017,9,16,1,***,0.03,0.008,0.3,0.005,0.021,***,***
H01,2017,9,16,2,***,0.035,0.003,0.4,0.006,0.026,***,***
H01,2017,9,16,3,***,0.039,0.009,0.3,0.001,0.017,***,***
H01,2017,9,16,4,***,0.043,0.006,0.3,0.002,0.019,***,***
H01,2017,9,16,5,***,0.048,0.008,0.3,0.005,0.021,***,***
H01,2017,9,16,6,***,0.036,0.007,0.4,0.006,0.018,***,***
H01,2017,9,16,7,***,0.042,0.007,0.4,0.009,0.015,***,***
H01,2017,9,16,8,***,0.034,0.008,0.3,0.006,0.014,***,***
H01,2017,9,16,9,***,0.03,0.008,0.3,0.006,0.014,***,***
H01,2017,9,16,10,***,0.034,0.013,0.3,0.004,0.013,***,***
H01,2017,9,16,11,***,0.027,0.015,0.4,0.004,0.014,***,***
H01,2017,9,16,12,***,0.032,0.011,0.4,0.005,0.019,***,***
H01,2017,9,16,13,***,0.029,0.016,0.4,0.006,0.013,***,***
H01,2017,9,16,14,***,0.029,0.022,0.3,0.002,0.009,***,***
H01,2017,9,16,15,***,0.027,0.018,0.3,0.002,0.011,***,***
H01,2017,9,16,16,***,0.025,0.016,0.3,0.002,0.011,***,***
H01,2017,9,16,17,***,0.03,0.013,0.4,0.004,0.015,***,***
H01,2017,9,16,18,***,0.029,0.012,0.4,0.003,0.014,***,***
H01,2017,9,16,19,***,0.034,0.009,0.5,0.003,0.016,***,***
H01,2017,9,16,20,***,0.033,0.008,0.4,0.003,0.015,***,***
H01,2017,9,16,21,***,0.027,0.007,0.5,0.001,0.017,***,***
H01,2017,9,16,22,***,0.047,0.006,0.5,0.001,0.021,***,***
H01,2017,9,16,23,***,0.046,0.006,0.5,0.002,0.02,***,***
H01,2017,9,16,24,***,0.043,0.008,0.4,0.001,0.016,***,***
H01,2017,9,17,1,***,0.033,0.007,0.4,0,0.014,***,***
H01,2017,9,17,2,***,0.032,0.008,0.3,0,0.009,***,***
H01,2017,9,17,3,***,0.017,0.008,0.3,0,0.009,***,***
H01,2017,9,17,4,***,0.031,0.006,0.3,0,0.011,***,***
H01,2017,9,17,5,***,0.027,0.006,0.3,0,0.009,***,***
H01,2017,9,17,6,***,0.019,0.006,0.3,0.001,0.009,***,***
H01,2017,9,17,7,***,0.037,0.007,0.3,0.001,0.007,***,***
H01,2017,9,17,8,***,0.019,0.008,0.3,0.003,0.008,***,***
H01,2017,9,17,9,***,0.024,0.012,0.3,0.003,0.008,***,***
H01,2017,9,17,10,***,0.017,0.014,0.4,0.004,0.008,***,***
H01,2017,9,17,11,***,0.037,0.014,0.5,0.006,0.01,***,***
H01,2017,9,17,12,***,0.027,0.018,0.4,0.004,0.01,***,***
H01,2017,9,17,13,***,0.036,0.018,0.6,0.005,0.013,***,***
H01,2017,9,17,14,***,0.03,0.02,0.7,0.005,0.014,***,***
H01,2017,9,17,15,***,0.029,0.03,0.3,0.002,0.007,***,***
H01,2017,9,17,16,***,0.03,0.027,0.4,0.002,0.01,***,***
H01,2017,9,17,17,***,0.026,0.024,0.3,0.002,0.01,***,***
H01,2017,9,17,18,***,0.024,0.017,0.4,0.003,0.012,***,***
H01,2017,9,17,19,***,0.03,0.022,0.2,0,0.002,***,***
H01,2017,9,17,20,***,0.02,0.021,0.1,0,0.002,***,***
H01,2017,9,17,21,***,0.015,0.02,0.1,0,0.001,***,***
H01,2017,9,17,22,***,0.045,0.02,0.1,0,0.001,***,***
H01,2017,9,17,23,***,0.041,0.021,0.1,0,0.001,***,***
H01,2017,9,17,24,***,0.046,0.03,0.1,0,0.001,***,***
H01,2017,9,18,1,***,0.062,0.028,0.1,0,0.001,***,***
H01,2017,9,18,2,***,0.021,0.025,0.1,0,0.001,***,***
H01,2017,9,18,3,***,0.004,0.03,0.1,0,0.001,***,***
H01,2017,9,18,4,***,0.014,0.028,0.3,0,0.004,***,***
H01,2017,9,18,5,***,0.03,0.029,0.1,0,0.002,***,***
H01,2017,9,18,6,***,0.03,0.026,0.2,0,0.003,***,***
H01,2017,9,18,7,***,0.006,0.022,0.2,0.002,0.009,***,***
H01,2017,9,18,8,***,0.021,0.032,0.2,0.001,0.004,***,***
H01,2017,9,18,9,***,0.02,0.038,0.5,0.001,0.006,***,***
H01,2017,9,18,10,***,0.016,0.038,0.5,0.001,0.005,***,***
H01,2017,9,18,11,***,0.019,0.041,0.3,0.001,0.004,***,***
H01,2017,9,18,12,***,0.022,0.041,0.3,0.001,0.004,***,***
H01,2017,9,18,13,***,0.009,0.043,0.2,0.001,0.003,***,***
H01,2017,9,18,14,***,0.021,0.043,0.2,0.001,0.003,***,***
H01,2017,9,18,15,***,0.023,0.041,0.3,0.001,0.004,***,***
H01,2017,9,18,16,***,0.027,0.04,0.3,0.001,0.005,***,***
H01,2017,9,18,17,***,0.029,0.037,0.2,0.001,0.006,***,***
H01,2017,9,18,18,***,0.025,0.033,0.3,0.001,0.007,***,***
H01,2017,9,18,19,***,0.027,0.03,0.3,0.001,0.007,***,***
H01,2017,9,18,20,***,0.033,0.028,0.2,0,0.007,***,***
H01,2017,9,18,21,***,0.026,0.025,0.2,0,0.008,***,***
H01,2017,9,18,22,***,0.026,0.025,0.2,0,0.008,***,***
H01,2017,9,18,23,***,0.03,0.025,0.2,0,0.007,***,***
H01,2017,9,18,24,***,0.023,0.021,0.2,0,0.009,***,***
H01,2017,9,19,1,***,0.022,0.008,0.3,0.002,0.018,***,***
H01,2017,9,19,2,***,0.026,0.005,0.3,0.001,0.017,***,***
H01,2017,9,19,3,***,0.03,0.003,0.3,0.002,0.017,***,***
H01,2017,9,19,4,***,0.036,0.003,0.3,0.005,0.016,***,***
H01,2017,9,19,5,***,0.037,0.001,0.3,0.009,0.015,***,***
H01,2017,9,19,6,***,0.019,0.001,0.4,0.024,0.015,***,***
H01,2017,9,19,7,***,0.039,0.002,0.4,0.03,0.014,***,***
H01,2017,9,19,8,***,0.017,0.005,0.4,0.019,0.011,***,***
H01,2017,9,19,9,***,0.037,0.013,0.3,0.011,0.013,***,***
H01,2017,9,19,10,***,0.03,0.019,0.4,0.009,0.015,***,***
H01,2017,9,19,11,***,0.031,0.034,0.4,0.005,0.012,***,***
H01,2017,9,19,12,***,0.02,0.046,0.4,0.002,0.008,30,35.2
H01,2017,9,19,13,***,0.027,0.055,0.4,0,0.005,29.2,35.5
H01,2017,9,19,14,***,0.031,0.059,0.3,0,0.005,30,38.1
H01,2017,9,19,15,***,0.038,0.066,0.3,0,0.005,30.6,36.1
H01,2017,9,19,16,***,0.031,0.074,0.3,0,0.005,30.2,40.5
H01,2017,9,19,17,***,0.033,0.044,0.3,0.002,0.016,27.7,50.6
H01,2017,9,19,18,***,0.036,0.042,0.3,0.001,0.011,26.4,65
H01,2017,9,19,19,***,0.048,0.041,0.2,0,0.008,25.4,71.4
H01,2017,9,19,20,***,0.056,0.027,0.3,0.001,0.016,25.5,72.6
H01,2017,9,19,21,***,0.036,0.02,0.4,0.001,0.02,25.1,73
H01,2017,9,19,22,***,0.047,0.014,0.4,0.003,0.021,24.5,72.5
H01,2017,9,19,23,***,0.05,0.013,0.4,0.003,0.023,24.2,70.5
H01,2017,9,19,24,***,0.039,0.005,0.5,0.007,0.024,23.4,71.3
H01,2017,9,20,1,***,0.033,0.002,0.5,0.005,0.024,22.6,71
H01,2017,9,20,2,***,0.037,0.001,0.5,0.006,0.022,22.3,70.3
H01,2017,9,20,3,***,0.035,0.002,0.4,0.006,0.022,22.2,69.9
H01,2017,9,20,4,***,0.047,0.002,0.4,0.009,0.02,22.1,69.6
H01,2017,9,20,5,***,0.047,0.002,0.4,0.007,0.021,22,70.2
H01,2017,9,20,6,***,0.044,0.005,0.4,0.006,0.018,21.8,69.8
H01,2017,9,20,7,***,0.045,0.005,0.5,0.01,0.019,22,67.6
H01,2017,9,20,8,***,0.045,0.011,0.5,0.007,0.019,23.5,63.5
H01,2017,9,20,9,***,0.044,0.012,0.5,0.01,0.022,24.8,57.5
H01,2017,9,20,10,***,0.051,0.017,0.5,0.012,0.026,26.3,54.6
H01,2017,9,20,11,***,0.059,0.041,0.6,0.003,0.016,27.5,51.8
H01,2017,9,20,12,***,0.072,0.058,0.6,0,0.008,27,52.8
H01,2017,9,20,13,***,0.078,0.055,0.6,0,0.01,27.2,48.5
H01,2017,9,20,14,***,0.065,0.06,0.6,0,0.008,28.5,44.8
H01,2017,9,20,15,***,0.066,0.059,0.6,0,0.009,27.7,46.3
H01,2017,9,20,16,***,0.065,0.042,0.5,0.002,0.018,27.2,52.9
H01,2017,9,20,17,***,0.065,0.029,0.5,0.004,0.025,26.5,56.3
H01,2017,9,20,18,***,0.065,0.022,0.5,0.003,0.025,25.2,63.1
H01,2017,9,20,19,***,0.059,0.019,0.5,0.002,0.022,25.2,61.8
H01,2017,9,20,20,***,0.057,0.049,0.5,0,0.01,22.2,80.7
H01,2017,9,20,21,***,0.054,0.049,0.5,0,0.01,22.5,81.3
H01,2017,9,20,22,***,0.063,0.042,0.5,0,0.01,22.7,76.9
H01,2017,9,20,23,***,0.053,0.038,0.4,0,0.01,22.3,72.6
H01,2017,9,20,24,***,0.034,0.036,0.4,0.001,0.009,22.2,63.7
H01,2017,9,21,1,***,0.031,0.036,***,***,***,21.7,60.2
H01,2017,9,21,2,***,0.02,0.036,0.2,***,***,21.8,55
H01,2017,9,21,3,***,0.025,0.035,0.2,0,0.009,21.3,60.9
H01,2017,9,21,4,***,0.042,0.035,0.2,0,0.008,21.1,65
H01,2017,9,21,5,***,0.02,0.03,0.2,0,0.011,20.2,68
H01,2017,9,21,6,***,0.029,0.011,0.3,0.008,0.027,19.2,69.2
H01,2017,9,21,7,***,0.023,0.01,0.4,0.008,0.025,20,68.1
H01,2017,9,21,8,***,0.028,0.021,0.4,0.006,0.015,22,60.9
H01,2017,9,21,9,***,0.027,0.034,0.3,0.003,0.013,22.9,54.1
H01,2017,9,21,10,***,0.03,0.041,0.3,0.003,0.013,25.4,42.7
H01,2017,9,21,11,***,0.021,0.05,0.3,0.002,0.009,26.5,40.4
H01,2017,9,21,12,***,0.012,0.054,0.2,0.001,0.007,27.7,35.2
H01,2017,9,21,13,***,0.014,0.057,0.2,0.001,0.007,28.7,34.6
H01,2017,9,21,14,***,0.017,0.057,0.2,0.001,0.006,29,34.2
H01,2017,9,21,15,***,0.023,0.053,0.3,0.001,0.007,28.6,35.7
H01,2017,9,21,16,***,0.033,0.053,0.3,0.001,0.007,28.9,36.3
H01,2017,9,21,17,***,0.025,0.049,0.3,0,0.008,27.5,42.7
H01,2017,9,21,18,***,0.025,0.042,0.3,0.001,0.01,26.4,47.6
H01,2017,9,21,19,***,0.029,0.038,0.3,0,0.011,25.1,52.7
H01,2017,9,21,20,***,0.03,0.032,0.3,0.001,0.013,24.2,57.2
H01,2017,9,21,21,***,0.038,0.024,0.4,0.001,0.018,24.2,58.1
H01,2017,9,21,22,***,0.018,0.025,0.4,0.001,0.018,23.8,56.3
H01,2017,9,21,23,***,0.025,0.018,0.4,0.003,0.024,22.9,61.3
H01,2017,9,21,24,***,0.037,0.001,0.5,0.015,0.034,22.1,66.7
H01,2017,9,22,1,***,0.045,0.001,0.5,0.022,0.03,21.5,69.5
H01,2017,9,22,2,***,0.032,0.001,0.5,0.022,0.027,20.7,73.2
H01,2017,9,22,3,***,0.023,0,0.4,0.028,0.027,20.3,73.2
H01,2017,9,22,4,***,0.033,0.001,0.4,0.025,0.027,19.5,73
H01,2017,9,22,5,***,0.033,0.004,0.4,0.005,0.024,19.1,72.1
H01,2017,9,22,6,***,0.038,0.012,0.4,0.002,0.025,19.6,69.4
H01,2017,9,22,7,***,0.035,0.012,0.4,0.008,0.027,20.5,68.6
H01,2017,9,22,8,***,0.036,0.017,0.6,0.013,0.024,22.4,61.9
H01,2017,9,22,9,***,0.041,0.025,0.5,0.007,0.022,24.2,55.7
H01,2017,9,22,10,***,0.037,0.026,0.4,0.006,0.026,25.1,54.4
H01,2017,9,22,11,***,0.048,0.029,0.4,0.004,0.028,25.1,54.4
H01,2017,9,22,12,***,0.057,0.021,0.8,0.007,0.034,24.9,55
H01,2017,9,22,13,***,0.061,0.019,0.9,0.007,0.036,25,60.6
H01,2017,9,22,14,***,0.074,0.012,1.1,0.014,0.045,24,65
H01,2017,9,22,15,***,0.079,0.01,1,0.014,0.045,23.1,69.7
H01,2017,9,22,16,***,0.071,0.008,0.7,0.01,0.048,21.8,81.6
H01,2017,9,22,17,***,0.079,0.012,0.8,0.01,0.045,22.5,85.2
H01,2017,9,22,18,***,0.032,0.03,0.5,0.002,0.022,21.9,84.3
H01,2017,9,22,19,***,0.021,0.028,0.5,0.002,0.021,22,83.4
H01,2017,9,22,20,***,0.027,0.026,0.5,0.003,0.02,21.2,83.3
H01,2017,9,22,21,***,0.043,0.027,0.5,0.002,0.019,21.4,82.1
H01,2017,9,22,22,***,0.073,0.01,0.7,0.001,0.029,20.9,85.1
H01,2017,9,22,23,***,0.057,0.009,0.7,0.001,0.027,21.1,84.3
H01,2017,9,22,24,***,0.073,0.009,0.6,0.001,0.022,20.7,86.9
H01,2017,9,23,1,***,0.068,0.013,0.5,0.001,0.016,20.5,88
H01,2017,9,23,2,***,0.047,0.016,0.4,0,0.013,20.7,86.4
H01,2017,9,23,3,***,0.034,0.012,0.4,0,0.01,20.6,83
H01,2017,9,23,4,***,0.028,0.013,0.4,0,0.009,20.6,83.7
H01,2017,9,23,5,***,0.039,0.011,0.4,0,0.01,20.8,82.2
H01,2017,9,23,6,***,0.025,0.012,0.4,0,0.009,21,79.9
H01,2017,9,23,7,***,0.037,0.015,0.4,0.001,0.008,21.6,78
H01,2017,9,23,8,***,0.04,0.018,0.4,0.003,0.009,22.7,72.3
H01,2017,9,23,9,***,0.026,0.026,0.4,0.002,0.008,24.4,69
H01,2017,9,23,10,***,0.03,0.034,0.4,0.003,0.009,27,57.7
H01,2017,9,23,11,***,0.018,0.043,0.4,0.001,0.007,28.4,52.8
H01,2017,9,23,12,***,0.023,0.044,0.4,0.001,0.005,28.1,53.9
H01,2017,9,23,13,***,0.022,0.042,0.4,0.001,0.005,28.3,52.2
H01,2017,9,23,14,***,0.022,0.045,0.5,0.001,0.007,28.5,49.2
H01,2017,9,23,15,***,0.025,0.047,0.5,0,0.006,28.3,46.1
H01,2017,9,23,16,***,0.03,0.044,0.5,0,0.008,27.9,50.3
H01,2017,9,23,17,***,0.034,0.042,0.3,0,0.008,26.6,51.3
H01,2017,9,23,18,***,0.023,0.042,0.3,0,0.008,25.8,51.8
H01,2017,9,23,19,***,0.035,0.037,0.4,0.001,0.012,25.2,53.8
H01,2017,9,23,20,***,0.033,0.035,0.3,0,0.011,24.8,56.7
H01,2017,9,23,21,***,0.037,0.026,0.4,0,0.014,23.8,60.4
H01,2017,9,23,22,***,0.038,0.022,0.4,0.001,0.016,23.3,63
H01,2017,9,23,23,***,0.049,0.014,0.5,0.002,0.018,22.9,67.9
H01,2017,9,23,24,***,0.049,0.009,0.5,0.001,0.017,22.9,69.4
H01,2017,9,24,1,***,0.041,0.01,0.5,0.002,0.017,22.2,71.7
H01,2017,9,24,2,***,0.043,0.011,0.4,0.001,0.012,22.4,72
H01,2017,9,24,3,***,0.04,0.011,0.4,0.001,0.013,21.8,70.4
H01,2017,9,24,4,***,0.046,0.006,0.4,0.002,0.012,21.6,76.8
H01,2017,9,24,5,***,0.04,0.004,0.4,0.003,0.012,21.3,77
H01,2017,9,24,6,***,0.046,0.004,0.4,0.004,0.014,20.9,78